Weather Roundup
Issued by NWS Chicago, IL

Home | Current Version | Previous Version | Text Only | Print | Product List | Glossary Off
Versions: 1 2 3 4 5 6 7 8 9 10 11 12 13 14 15 16 17 18 19 20 21 22 23 24 25 26 27 28 29 30 31 32 33 34 35 36 37 38 39 40 41 42 43 44 45 46 47 48 49 50

698
NZUS59 KLOT 030408
HRRLOT

CHICAGO AREA WEATHER ROUNDUP
NATIONAL WEATHER SERVICE CHICAGO/ROMEOVILLE IL
1100 PM CDT MON MAY 02 2016

NOTE: "FAIR" INDICATES FEW OR NO CLOUDS BELOW 12,000 FEET WITH NO
SIGNIFICANT WEATHER AND/OR OBSTRUCTIONS TO VISIBILITY.

* THESE STATIONS ARE NOT UNDER NWS QUALITY CONTROL. THEY ALSO MAY NOT
  REPORT WEATHER SUCH AS PRECIPITATION OR FOG.

ILZ005-006-012>014-019>023-030500-
NORTHEAST ILLINOIS

CITY           SKY/WX    TMP DP  RH WIND       PRES   REMARKS
OHARE          CLEAR     45  36  70 CALM      30.00F
MIDWAY         PTCLDY    49  33  54 CALM      30.01F
AURORA         CLEAR     41  37  86 NW5       30.02F
LANSING*       CLOUDY    47  37  67 CALM      30.01F
JOLIET*        CLEAR     43  40  89 CALM      30.01F
WAUKEGAN       CLEAR     40  36  86 CALM      30.01S
DUPAGE AIRPORT CLEAR     44  32  62 N3        30.01S
WHEELING       CLEAR     43  36  76 CALM      30.02F
KANKAKEE*      CLOUDY    47  39  73 CALM      30.02F
MORRIS*        PTCLDY    47  39  73 CALM      30.01F
LEWIS AIRPORT* CLEAR     46  35  63 CALM      30.01F
$$

WIZ051-052-058>065-066-070>072-030500-
SOUTHEAST WISCONSIN

CITY           SKY/WX    TMP DP  RH WIND       PRES   REMARKS
MILWAUKEE      PTCLDY    44  34  67 CALM      30.01F
KENOSHA*       CLEAR     42  34  73 CALM      30.01F
RACINE*        CLEAR     41  33  73 CALM      30.03S
BURLINGTON     CLEAR     39  35  83 CALM      30.02S
WAUKESHA       CLEAR     41  32  70 CALM      30.02F
WEST BEND      CLEAR     43  32  65 CALM      30.01F
$$

INZ001>003-010>013-019-020-030500-
NORTHWEST INDIANA

CITY           SKY/WX    TMP DP  RH WIND       PRES   REMARKS
GARY*          PTCLDY    46  44  92 CALM      30.02S
MICHIGAN CITY* NOT AVBL
RENSSELAER*    NOT AVBL
VALPARAISO     CLOUDY    47  40  76 CALM      30.01S
$$

LMZ740>746-030500-
SOUTHERN LAKE MICHIGAN

STATION/POSITION TIME  SKY/WX   TEMP WIND        PRES    VSBY
                                AIR  DIR/SP/G
                 (UTC)          (F)  (DEG/KT/KT) (MB)    (MI)
HARRISON CRIB    0300            47  320/  5/  6   N/A
BURNHAM HARBOR   0400            47   40/  2/  7   N/A
CALUMET HARBOR   0300            46  340/  3/  4 1016.1S
BURNS HARBOR     0300            47  340/  2/  3 1016.9S
MICHIGAN CITY    0300            46  320/  4/  4   N/A
$$

ABBREVIATIONS USED IN REMARKS
   TC - TEMPERATURE IN CELSIUS
  WCI - WIND CHILL INDEX
   HX - HEAT INDEX
  VSB - VISIBILITY
$$




USA.gov is the U.S. government's official web portal to all federal, state and local government web resources and services.